Regional Weather Roundup
Issued by NWS State College, PA

Home | Current Version | Previous Version | Graphics & Text | Print | Product List | Glossary Off
Versions: 1 2 3 4 5 6 7 8 9 10 11 12 13 14 15 16 17 18 19 20 21 22 23 24 25 26 27 28 29 30 31 32 33 34 35 36 37 38 39 40 41 42 43 44 45 46 47 48 49 50

000
ASUS41 KCTP 162003
RWRCTP

REGIONAL WEATHER ROUNDUP
NATIONAL WEATHER SERVICE STATE COLLEGE PA
300 PM EST TUE JAN 16 2018

Note: "fair" indicates few or no clouds below 12,000 feet with no
significant weather and/or obstructions to visibility.

* = STATION THAT DOES NOT REPORT PRECIPITATION /E.G. RAIN...SNOW...ETC/
    THUNDER OR FOG.

PAZ002>004-007>009-013>016-020>023-029>032-162100-
WESTERN PENNSYLVANIA

CITY           SKY/WX    TMP DP  RH WIND       PRES   REMARKS
ERIE           LGT SNOW  13   8  81 W12       30.38S VSB 1   WCI  -1
MEADVILLE      CLOUDY    18  15  88 NW6       30.29R WCI  10
FRANKLIN*      LGT SNOW  22  18  85 SW8       30.28S VSB 1   WCI  12
NEW CASTLE     LGT SNOW  18  13  80 SW7       30.35S WCI   9
BEAVER COUNTY  LGT SNOW  19  14  79 W9        30.33R WCI   9
BUTLER*        LGT SNOW  23  18  80 SW9       30.31S WCI  13
PITTSBURGH INT LGT SNOW  20  16  84 W10       30.32R FOG     WCI   9
PITTSBURGH     LGT SNOW  22  18  85 VRB7      30.30S VSB 1   WCI  13
INDIANA*       CLOUDY    28  27  93 CALM      30.32S FOG
LATROBE        NOT AVBL
WASHINGTON CO* LGT SNOW  21  16  81 NW7       30.36R WCI  12
$$

PAZ004>006-010>012-017>019-024>028-033>037-041-042-045-046-049>053-162100-
CENTRAL PENNSYLVANIA

CITY           SKY/WX    TMP DP  RH WIND       PRES   REMARKS
BRADFORD       LGT SNOW  25  21  85 S5        30.22F FOG
DUBOIS         LGT SNOW  25  21  85 SW6       30.25R FOG
CLEARFIELD     LGT SNOW  28  26  92 CALM      30.28S VSB 1
JOHNSTOWN      LGT SNOW  25  23  92 CALM      30.21F FOG
ALTOONA        LGT SNOW  26  23  88 CALM      30.28F FOG
STATE COLLEGE  LGT SNOW  25  23  93 CALM      30.32S VSB 1
WILLIAMSPORT   SNOW      28  26  92 CALM      30.37S VSB 1/2
SELINSGROVE    LGT SNOW  29  28  96 CALM      30.37F VSB 3/4
FT INDIANTOWN  LGT SNOW  30  30 100 CALM      30.37F
CAPITAL CITY   LGT SNOW  32  29  88 CALM      30.37F VSB 1
HARRISBURG     LGT SNOW  32  30  92 CALM      30.37F
YORK           CLOUDY    33  27  78 CALM      30.36F
$$

PAZ038>040-043-044-047-048-054-055-060>062-067>071-162100-
EASTERN PENNSYLVANIA

CITY           SKY/WX    TMP DP  RH WIND       PRES   REMARKS
SCRANTON       LGT SNOW  29  27  92 CALM      30.33F VSB 1
MOUNT POCONO   LGT SNOW  27  25  92 SW8       30.28F FOG
ALLENTOWN      CLOUDY    32  26  78 NE5       30.39F
QUAKERTOWN*    CLOUDY    36  28  75 CALM      30.37F
READING        CLOUDY    32  31  96 N3        30.37F
LANCASTER      CLOUDY    33  31  92 N5        30.37F FOG
COATESVILLE    FAIR      39  30  70 VRB5      30.36F
POTTSTOWN      NOT AVBL
BLUE BELL      FAIR      39  30  70 SW3       30.39F
DOYLESTOWN     PTSUNNY   39  28  64 CALM      30.37F
WILLOW GROVE   NOT AVBL
NORTH PHILA    FAIR      44  29  55 CALM      30.40F
PHILADELPHIA   PTSUNNY   44  29  55 CALM      30.38F
$$




USA.gov is the U.S. government's official web portal to all federal, state and local government web resources and services.